Wind_Speed
1 1 1 1 1 1 2 2 2 2 2 1 1 1 1 0 1 1 2 2 2 3 4 5 5 5 5 5 6 7 8 8 9 10 10 11 11 11 12 12 13 14 14 15 16 16 17 17 18 19 19 20 20 21 21 21 22 22 22 22 21 22 25 26 26 26 27 29 28 28 30 31 31 32 33 34 34 36 36 37 38 38 37 38 38 38 39 39
1 1 2 2 2 2 3 3 3 3 3 3 3 3 3 3 4 4 5 5 5 6 6 7 7 7 8 8 9 9 10 10 11 12 13 13 14 14 15 15 16 16 17 17 18 18 19 19 20 21 22 22 23 23 23 23 24 24 24 24 24 25 28 28 29 29 29 30 31 30 32 33 34 33 34 35 35 37 39 39 38 39 39 39 40 40 41 41
2 2 3 3 3 4 5 5 6 6 6 6 6 6 6 6 7 7 7 8 8 8 9 9 10 10 10 11 11 12 13 13 13 14 15 15 16 17 17 18 18 19 19 19 20 20 21 21 22 23 24 24 25 25 25 25 26 26 26 27 27 28 30 30 31 32 31 32 33 33 33 34 35 35 35 36 37 38 39 39 40 40 41 40 41 42 42 42
4 3 3 4 5 5 6 7 8 8 8 9 9 9 9 10 10 10 10 10 11 11 11 12 12 12 13 13 14 15 15 15 16 16 17 18 18 19 19 20 20 21 21 21 21 22 23 23 24 24 25 26 26 27 27 27 28 28 28 29 30 30 32 32 32 34 34 34 34 34 35 35 36 37 37 36 37 39 39 39 41 42 41 41 42 43 43 43
6 5 5 5 6 7 7 8 9 9 10 10 11 11 12 13 13 13 14 14 14 14 14 14 15 15 15 16 16 17 18 18 18 18 19 20 21 21 22 22 22 23 23 23 23 24 24 25 25 25 26 26 27 28 28 29 30 30 30 31 32 33 34 34 33 35 35 35 35 35 36 36 37 37 38 38 38 39 39 40 41 42 43 43 43 43 44 44
8 8 8 8 8 8 7 7 8 8 9 10 11 12 13 14 14 15 16 16 17 17 17 18 18 18 18 19 19 20 20 20 20 21 21 22 22 23 23 24 25 26 26 26 26 26 26 26 26 26 27 27 27 28 28 29 30 31 30 31 33 33 34 34 34 35 35 35 35 36 36 37 37 38 38 38 38 39 39 40 41 42 43 44 44 45 45 46
10 10 10 9 9 9 8 8 8 8 9 10 11 12 13 13 14 15 16 17 17 18 18 19 20 20 20 21 22 22 22 23 23 24 24 24 25 25 26 26 27 28 28 29 29 29 28 28 28 28 29 29 29 29 30 30 30 31 31 31 32 33 33 34 34 35 35 35 36 36 37 37 37 39 39 38 39 40 40 40 41 42 43 45 45 46 47 47
11 11 11 11 11 10 9 9 9 9 9 10 11 12 13 14 15 15 16 17 18 19 19 19 20 21 21 22 23 23 24 24 24 25 26 26 27 27 28 28 29 29 30 30 30 30 30 30 30 30 30 31 31 31 31 32 31 31 32 32 32 33 34 34 35 35 36 36 37 37 38 37 38 40 40 39 39 41 42 42 42 43 44 45 46 47 48 49
13 13 12 12 12 12 11 10 11 10 11 11 12 14 15 15 16 16 17 18 19 20 20 20 21 21 21 22 23 23 24 24 25 26 27 27 28 28 29 30 30 31 31 31 31 31 31 31 30 31 31 31 32 32 33 34 33 33 33 34 34 34 35 36 36 36 37 37 38 38 39 39 39 41 41 40 41 42 43 43 44 45 46 47 48 49 50 51
14 13 13 13 13 12 11 11 11 12 12 13 14 15 16 17 17 18 18 19 19 20 20 20 21 21 22 22 22 23 23 24 25 26 26 27 28 29 30 31 32 32 32 32 32 32 32 31 31 31 31 31 31 32 33 34 34 34 35 35 35 36 36 37 37 38 38 38 39 40 40 40 41 42 42 42 43 44 44 45 46 47 48 49 50 51 52 53
15 15 15 14 13 12 11 11 12 13 13 14 15 16 16 17 18 18 18 19 19 19 20 20 20 21 21 22 22 22 22 23 24 25 26 27 28 29 30 31 33 33 33 32 32 32 32 32 32 32 31 31 31 32 32 33 34 34 35 35 36 37 37 37 38 38 38 39 39 41 42 42 42 43 43 43 44 45 46 47 48 48 49 50 51 52 53 54
15 15 14 13 12 11 11 12 13 14 14 15 16 16 16 16 17 17 17 17 18 18 19 19 20 20 20 21 21 22 22 23 23 24 25 25 26 28 28 30 31 32 33 32 31 31 31 32 32 32 32 32 32 32 32 32 33 34 34 35 35 36 37 37 37 38 39 39 40 41 43 44 43 43 44 44 45 46 47 48 49 50 51 52 53 54 55 56
15 14 12 11 11 11 11 12 13 14 16 16 16 16 16 15 16 16 16 16 16 17 17 18 18 19 19 20 21 22 22 23 24 24 24 25 25 26 27 28 29 30 31 31 31 31 31 31 32 32 33 33 33 33 33 33 33 33 34 35 35 36 38 37 37 39 39 40 41 41 44 45 43 44 45 45 46 47 48 49 51 52 53 54 55 55 56 57
13 11 10 10 10 11 12 13 14 15 15 15 15 15 15 15 14 14 15 15 15 16 17 17 17 18 19 20 21 22 23 24 24 25 25 25 25 26 26 27 27 28 28 29 29 30 30 31 31 32 32 32 33 33 33 33 34 34 35 36 35 36 39 39 38 40 40 41 41 41 45 46 44 46 47 48 49 50 51 51 52 53 54 55 56 56 57 58
10 9 9 10 11 12 13 13 13 13 13 13 13 13 13 13 14 14 15 15 16 17 17 18 18 19 19 20 21 22 23 24 25 25 25 25 25 25 26 26 26 27 27 28 28 29 29 30 31 31 31 32 32 33 33 34 35 35 35 37 37 37 39 40 39 40 41 42 42 43 46 47 46 48 49 50 51 52 52 53 54 55 55 56 57 57 58 59
7 8 9 10 12 12 12 12 12 12 13 13 13 13 13 13 14 15 15 16 17 18 19 20 20 20 21 22 23 23 24 24 25 26 26 25 25 25 25 26 26 27 27 28 28 28 29 29 30 30 31 31 32 32 33 34 36 36 35 36 38 38 39 41 41 41 43 44 45 45 47 48 47 48 50 50 52 52 53 54 54 55 56 56 57 57 57 58
7 8 10 11 11 12 12 12 12 14 14 14 14 14 14 15 15 16 17 18 19 19 20 20 20 21 21 22 22 23 23 24 24 25 26 26 25 25 25 25 25 26 27 28 28 28 29 30 30 31 31 31 32 33 33 34 36 38 37 36 37 38 39 41 41 41 42 43 45 44 44 46 47 47 49 50 51 52 52 53 54 54 55 55 56 56 57 58
7 9 10 10 10 10 11 12 13 14 15 15 15 16 16 17 18 19 19 19 20 19 19 19 19 19 19 19 19 19 19 20 21 21 23 24 25 25 25 24 24 25 25 26 26 26 27 28 29 30 31 31 31 32 32 33 34 35 35 35 35 36 37 38 38 39 40 42 44 45 45 46 47 47 48 49 49 50 51 52 53 54 55 56 56 57 58 59
8 9 9 9 9 10 11 12 13 14 15 16 17 17 18 19 19 20 19 19 18 17 17 16 16 16 16 16 16 16 17 17 18 18 19 19 20 21 21 22 22 22 23 23 23 23 23 24 25 26 27 27 28 28 29 30 30 31 32 33 34 35 37 38 39 40 42 43 44 45 45 46 46 47 47 48 49 50 51 52 53 54 55 55 56 57 57 58
8 8 8 8 9 10 11 12 13 15 16 17 18 19 19 18 18 18 17 15 14 13 13 13 12 13 13 13 14 15 15 16 16 17 18 18 18 18 18 18 18 19 19 20 20 21 21 22 22 22 23 24 25 26 27 29 30 31 32 34 35 37 38 39 40 41 42 44 44 44 45 45 45 46 47 48 49 50 50 51 52 53 53 54 55 56 57 58
7 7 8 8 10 11 12 13 15 16 18 18 19 18 17 15 14 13 11 10 10 10 10 10 11 11 11 12 13 13 14 15 15 16 17 18 18 18 18 18 17 17 18 18 19 19 20 21 21 22 23 24 25 26 28 29 30 32 33 34 36 37 38 39 40 41 42 44 46 45 45 45 45 46 47 48 49 50 51 51 52 53 54 56 56 57 58 58
7 8 8 9 11 12 14 15 17 18 18 17 16 14 12 10 9 9 8 8 9 9 9 10 10 11 11 12 13 13 14 16 16 17 17 18 19 19 19 19 19 19 19 20 20 21 21 22 22 23 24 25 26 27 28 29 30 32 33 34 36 37 38 39 39 40 41 43 45 45 45 45 46 47 47 49 50 51 52 53 54 55 56 57 57 57 58 58
8 8 9 11 13 14 16 17 17 16 15 13 10 8 8 7 8 9 8 9 9 9 9 9 10 11 11 13 14 15 16 18 19 19 19 19 20 20 20 20 20 20 21 21 22 23 23 23 24 25 26 26 27 28 29 30 31 31 32 33 34 36 37 38 39 40 41 42 44 45 45 46 47 48 49 50 52 53 54 55 55 55 55 56 56 56 56 56
8 9 11 13 14 16 16 15 14 12 10 8 7 7 8 8 9 9 9 9 8 8 9 10 11 12 12 15 16 17 18 19 20 21 21 21 21 21 22 21 22 22 22 23 23 24 24 25 25 26 26 27 27 28 28 30 31 31 32 33 35 36 37 38 40 41 42 43 44 46 48 49 50 50 51 52 52 53 53 53 53 53 53 53 54 54 54 54
9 11 13 14 15 15 13 11 9 8 7 8 8 9 9 9 9 9 9 10 8 8 10 10 12 13 13 16 18 18 20 20 21 21 21 21 21 20 21 21 21 21 21 22 22 22 23 24 24 25 26 26 27 28 29 30 32 33 34 35 37 38 38 40 41 42 44 46 47 48 49 51 52 52 52 51 50 50 50 50 51 51 51 52 52 52 52 52
11 13 14 15 13 11 9 8 8 8 8 9 9 9 9 9 9 8 9 10 8 8 10 10 13 14 15 18 18 19 19 19 19 18 18 18 18 18 18 19 19 20 20 21 21 22 23 24 25 26 27 28 29 30 31 32 34 35 37 37 38 39 40 41 43 43 44 46 47 47 47 49 51 51 49 48 48 48 49 49 49 49 49 49 50 50 50 51
13 14 13 12 9 8 7 7 7 7 8 8 8 9 9 9 9 8 10 9 8 9 11 11 13 14 15 16 16 16 16 16 16 16 17 17 18 18 19 19 20 21 22 23 24 24 26 26 27 28 29 31 32 33 33 34 35 36 37 38 39 40 41 42 43 43 43 44 44 44 43 43 45 46 46 46 46 46 47 47 48 48 48 49 49 50 50 51
12 11 9 8 7 7 7 7 7 7 8 8 9 9 9 9 9 9 10 9 9 11 11 11 12 13 13 13 13 14 15 16 17 18 19 20 20 21 21 22 23 24 25 26 27 28 29 29 30 31 32 33 34 34 35 36 36 37 38 39 40 41 41 41 41 41 40 40 39 39 39 39 42 43 42 44 45 45 45 46 47 48 48 49 50 50 51 51
9 8 7 6 6 6 6 7 7 7 8 8 9 9 9 9 9 9 10 10 10 11 11 11 11 11 12 13 14 15 17 18 19 20 21 22 23 24 24 25 26 26 27 28 29 29 30 31 32 33 33 34 34 35 36 37 37 38 39 39 39 39 39 39 38 36 36 35 34 34 36 38 41 42 41 44 46 46 46 46 48 48 49 50 50 51 52 53
6 6 6 7 7 7 7 7 8 8 8 9 9 9 9 9 9 9 9 10 10 11 11 12 13 13 14 15 17 19 20 21 22 23 24 25 26 26 26 27 28 28 28 28 29 29 30 30 31 32 33 34 34 35 36 37 38 38 38 38 38 38 37 36 34 32 31 32 32 33 35 37 40 42 41 43 45 47 48 47 48 49 50 51 52 53 54 55
6 7 7 7 7 7 7 8 8 9 9 9 9 9 9 9 9 9 10 10 11 12 13 14 15 17 18 19 20 22 23 24 25 26 27 28 28 29 28 28 29 29 28 28 29 29 29 29 30 31 33 34 35 35 36 36 37 37 37 37 36 35 34 32 31 29 29 30 32 33 35 36 38 40 42 43 44 46 47 48 49 50 51 52 53 54 55 56
7 7 7 7 7 8 8 8 9 9 9 9 9 9 9 10 10 11 12 12 12 14 15 16 18 19 20 21 22 24 24 25 26 26 26 26 26 26 26 25 26 27 27 28 29 29 29 30 31 32 32 33 34 35 36 36 35 35 34 31 30 30 29 29 29 29 30 32 34 36 37 37 38 40 42 44 45 46 47 49 51 52 53 54 55 56 57 58
7 7 7 7 8 8 9 9 9 9 9 9 9 10 11 12 12 12 13 13 14 15 16 18 19 20 21 23 24 25 26 26 26 26 26 25 25 25 25 25 25 26 27 28 29 30 31 31 32 33 34 35 36 36 36 35 33 32 31 30 30 31 32 32 33 34 35 36 37 38 39 40 41 43 44 45 46 47 49 50 52 53 54 55 56 58 59 60
6 7 7 8 8 9 9 9 9 10 10 11 12 12 12 13 13 13 14 15 16 17 18 19 20 22 23 24 25 26 26 26 26 25 25 25 25 26 26 26 27 27 28 29 30 31 33 34 34 36 37 37 37 36 35 33 31 30 31 32 33 33 34 35 35 36 37 39 40 41 41 42 43 44 45 46 47 49 51 52 53 54 56 57 58 59 61 61
6 7 8 8 9 9 9 10 11 11 12 12 12 13 13 14 14 15 16 16 17 19 20 21 23 24 25 26 26 26 26 25 25 25 26 26 26 26 27 27 28 29 30 32 34 35 37 37 37 37 36 35 33 32 31 30 30 30 31 32 33 34 34 35 36 37 39 41 43 45 45 45 45 45 46 47 49 51 53 54 55 56 57 59 60 61 62 63
7 8 8 8 9 9 10 12 12 12 13 13 12 13 14 15 15 16 17 18 19 21 22 23 24 25 26 26 26 25 26 26 26 26 27 27 27 28 28 29 30 32 34 36 38 39 40 39 38 36 34 31 29 28 28 28 29 31 32 33 34 35 35 36 37 39 41 43 43 44 46 47 48 48 48 50 52 53 53 55 56 58 59 61 63 64 65 65
8 8 8 9 10 11 12 13 12 13 13 13 13 15 15 16 16 18 18 19 21 22 23 24 24 24 25 25 25 26 26 27 27 28 28 28 28 29 30 32 34 36 38 40 40 41 40 37 35 32 30 28 26 26 27 29 31 33 34 36 36 37 37 39 40 41 43 44 44 44 46 47 48 50 52 53 54 55 55 56 57 59 61 63 65 66 67 67
8 9 10 11 12 13 13 13 13 14 13 13 15 16 16 16 17 18 19 20 21 22 23 23 23 24 24 25 25 26 26 27 27 28 28 28 29 30 32 35 37 39 41 42 41 40 39 35 32 29 27 26 26 26 28 30 32 35 36 38 38 38 39 40 42 43 45 47 47 47 47 48 49 50 53 56 56 58 60 61 62 63 64 65 66 67 68 69
10 11 12 13 13 12 13 14 14 13 13 15 17 17 17 17 18 19 20 21 22 22 23 23 23 24 24 25 25 26 26 26 27 28 28 29 31 33 35 37 40 41 42 42 40 37 35 32 29 27 26 26 27 29 31 33 34 36 38 39 38 38 38 39 41 43 45 47 49 49 47 48 50 51 53 56 58 60 62 64 65 66 66 67 68 69 70 70
12 13 14 13 12 13 14 14 13 14 15 17 17 17 18 18 19 20 21 22 22 23 24 24 24 25 25 25 26 26 26 26 27 28 29 31 33 35 37 39 41 42 41 40 37 33 31 28 27 26 26 27 29 31 33 35 37 38 39 39 38 39 40 41 42 44 45 46 48 50 49 48 50 52 54 57 59 61 63 65 66 67 68 69 70 71 71 71
14 14 14 13 13 14 13 12 13 16 17 17 18 18 18 19 20 21 22 22 23 24 24 25 25 25 25 25 26 26 27 27 28 29 31 33 35 37 40 41 42 42 40 37 34 31 28 27 26 26 27 28 30 32 34 36 39 40 40 39 39 41 42 44 45 45 45 46 47 49 50 50 50 53 56 58 60 62 64 66 67 68 69 69 70 71 71 71
14 14 14 13 14 15 13 13 15 17 17 17 18 18 19 20 21 22 23 23 24 24 25 25 25 26 26 26 27 27 28 29 30 31 33 35 37 40 41 43 43 41 39 35 31 28 27 26 26 26 27 29 31 33 35 37 39 39 39 39 40 41 42 44 45 46 46 46 47 49 52 53 53 55 58 60 62 64 66 66 67 67 68 69 70 71 71 71
14 14 13 13 14 14 13 15 17 17 18 18 19 19 21 22 22 22 23 23 24 25 25 25 26 26 26 27 28 28 29 30 31 33 35 37 39 42 43 43 42 40 37 33 29 27 26 26 27 28 29 31 33 35 37 38 38 37 38 40 41 43 43 44 46 47 47 47 49 51 54 55 57 58 60 63 64 65 67 67 68 68 68 70 71 72 72 71
14 14 14 14 14 14 15 17 18 18 18 18 19 20 22 22 22 23 24 25 25 25 26 26 26 27 27 28 29 30 31 32 33 35 37 39 41 43 44 43 41 38 34 30 28 26 26 26 28 30 32 34 36 38 39 39 38 39 40 41 42 43 45 46 47 48 49 50 51 53 54 56 58 60 62 65 67 68 69 70 70 70 71 72 73 73 72 71
15 14 14 14 14 15 17 18 18 18 18 19 20 21 22 22 23 24 25 26 26 26 27 27 27 28 28 29 30 31 32 33 35 36 39 41 43 43 43 42 39 36 32 28 26 25 25 26 28 30 33 35 37 39 39 38 39 40 40 41 42 43 45 46 47 49 51 52 52 53 55 55 56 60 64 66 69 70 70 70 70 71 72 72 73 73 72 71
15 15 15 15 15 17 18 18 18 18 19 19 21 22 22 23 24 25 26 27 27 28 28 28 28 29 29 30 31 32 33 34 36 38 40 42 43 43 42 40 37 33 29 26 25 24 25 26 27 29 32 34 36 37 36 37 39 41 41 42 43 44 46 46 47 49 50 52 51 52 56 57 57 60 64 66 69 70 70 69 69 70 71 72 72 72 71 70
16 16 16 16 16 17 18 18 18 19 19 21 22 22 22 23 25 26 27 28 28 28 29 29 29 30 30 31 32 33 34 35 37 39 41 43 44 43 41 38 35 31 27 25 24 24 25 26 28 30 31 33 35 35 35 38 40 41 42 43 44 46 47 47 48 49 51 53 53 53 56 58 59 62 65 67 69 69 69 68 69 69 70 71 72 71 70 69
16 17 16 16 17 18 19 19 19 19 20 21 22 22 23 24 26 27 28 29 29 29 29 29 29 30 30 31 32 33 34 36 38 40 42 43 43 42 39 36 32 29 26 24 24 24 25 26 28 30 32 34 35 35 36 39 41 41 42 44 45 47 49 49 50 51 52 53 54 55 56 57 60 63 66 68 69 69 68 68 68 69 70 71 71 70 69 68
16 17 17 17 17 18 19 19 19 20 21 22 22 22 23 25 27 28 28 29 29 29 30 30 30 30 31 32 33 34 35 37 39 41 43 43 43 40 37 34 31 28 26 24 24 25 26 27 29 31 32 34 35 35 37 40 42 42 43 45 47 49 51 52 52 52 53 54 55 57 57 58 61 65 68 69 70 70 69 68 68 69 70 70 70 69 67 66
17 18 18 17 18 19 19 19 20 21 22 22 22 23 24 25 27 29 29 30 30 30 30 30 30 31 31 32 34 34 36 38 40 42 43 43 42 39 36 33 30 28 26 25 25 26 26 28 30 31 33 34 35 36 39 41 43 44 44 47 49 50 52 54 54 54 55 55 57 58 59 60 62 66 69 71 71 70 69 68 69 70 70 70 70 69 67 65
17 18 18 17 18 19 19 19 20 21 22 23 23 24 25 26 28 29 30 30 31 31 31 31 30 31 32 33 34 35 37 39 41 42 43 43 41 38 35 33 30 27 25 25 25 26 27 29 31 32 34 35 36 38 41 43 45 45 46 48 50 52 54 55 55 55 56 57 58 58 60 61 64 67 69 71 71 71 70 69 70 71 71 71 71 70 68 66
18 18 18 18 19 19 20 20 21 22 23 23 24 25 26 27 28 30 30 31 31 31 31 31 31 32 33 34 35 36 38 39 41 43 43 42 40 38 35 32 30 27 26 25 26 27 28 30 32 34 36 36 38 40 42 45 46 47 49 50 52 53 55 57 57 56 56 58 59 59 60 62 65 68 71 72 72 72 70 69 71 72 71 70 70 70 68 67
Wind_Direction
141 140 172 179 175 184 191 182 156 142 133 130 132 142 178 235 259 279 284 275 256 245 234 226 225 229 242 251 255 256 255 256 259 264 266 265 265 265 267 266 264 261 258 256 254 252 251 251 251 252 253 254 255 256 258 259 261 262 263 264 264 264 264 266 268 269 271 273 273 275 277 277 276 276 277 277 277 277 277 276 277 278 279 280 280 279 278 277
220 224 223 240 243 237 244 240 231 226 228 228 230 233 235 242 246 251 254 257 259 258 256 251 247 244 245 248 252 256 257 257 259 262 264 265 265 266 267 267 267 265 263 261 260 259 258 258 258 259 259 259 259 259 260 262 263 264 264 265 266 266 267 269 271 272 272 274 275 275 277 278 278 276 276 276 276 276 276 277 279 279 279 279 278 278 277 277
268 267 258 258 256 252 256 258 251 247 245 246 247 246 247 248 248 252 253 257 260 262 264 263 261 258 255 255 255 257 258 259 261 263 265 266 267 267 267 267 267 267 267 267 266 266 265 264 264 264 265 265 265 264 264 265 265 266 267 267 267 268 269 270 272 273 273 274 275 275 276 277 278 278 276 276 276 276 277 279 279 278 278 278 278 278 278 278
278 277 276 273 268 262 261 260 259 259 260 259 260 261 262 263 263 263 261 261 262 263 265 267 268 268 267 265 264 264 263 264 266 267 268 269 270 270 270 269 269 269 270 271 271 270 270 269 268 267 268 268 268 268 268 267 267 268 269 270 269 269 270 271 273 275 275 276 276 276 276 276 277 278 277 277 277 277 278 278 278 278 277 277 278 278 278 278
280 282 283 282 280 277 270 266 266 267 268 268 269 269 271 271 272 272 272 271 269 269 268 268 269 270 271 271 271 271 270 271 271 270 271 272 272 273 273 273 273 273 272 272 272 272 272 271 270 270 269 269 269 270 270 269 269 269 270 271 271 271 272 273 274 275 275 276 276 276 276 276 276 276 277 278 278 278 278 278 278 278 278 278 278 278 278 278
275 280 284 286 286 285 280 277 276 275 273 272 273 272 273 273 274 275 276 277 276 277 276 276 275 275 275 274 274 274 275 276 276 275 275 275 275 275 276 277 277 277 277 276 275 274 274 274 273 273 272 272 271 271 272 272 272 272 272 272 273 273 273 274 274 274 275 276 276 276 276 276 276 276 277 278 278 278 277 278 278 278 278 278 278 278 277 277
271 277 283 287 287 287 288 287 286 284 282 279 277 275 275 275 275 277 278 279 280 281 281 282 283 282 281 281 280 279 279 279 279 279 278 278 278 278 277 277 278 278 279 279 279 278 277 277 277 277 276 275 275 274 274 274 274 274 274 273 274 275 275 275 275 275 276 276 276 276 276 276 277 276 276 277 278 277 277 277 277 277 277 278 278 277 277 277
272 278 283 286 289 292 294 293 291 289 287 283 280 279 278 278 277 277 278 279 280 280 281 282 282 282 282 283 283 283 283 283 283 282 281 281 280 280 279 279 278 277 277 278 278 278 279 279 279 279 278 278 277 276 276 276 275 276 276 275 275 276 276 276 276 276 276 276 276 275 276 276 276 276 276 277 277 277 277 277 277 277 277 278 278 278 278 279
273 279 283 287 291 295 296 295 294 292 290 287 285 285 284 283 282 281 279 278 277 277 278 279 279 280 280 280 281 282 283 283 283 283 283 283 282 282 282 281 279 278 277 276 276 276 276 277 278 278 278 279 278 278 278 277 277 277 277 277 277 277 277 277 277 276 276 276 276 276 276 276 276 276 276 277 277 277 277 278 278 278 278 278 279 279 279 279
274 279 284 288 292 292 293 294 295 295 295 293 291 290 289 287 286 284 282 280 277 276 276 277 278 279 280 281 281 282 283 281 281 281 282 282 282 283 282 282 281 280 278 277 275 274 274 274 274 275 276 277 278 277 278 277 278 278 277 277 277 277 276 276 276 276 276 276 276 277 277 276 276 277 277 277 278 278 278 278 278 279 279 279 279 279 278 279
276 281 285 288 290 292 295 296 298 298 298 296 293 292 290 288 286 285 283 281 280 278 278 279 279 281 284 285 286 286 285 283 282 282 281 280 281 281 281 281 281 281 280 278 277 275 273 273 272 273 273 274 275 275 276 276 277 277 276 276 276 276 276 276 276 276 276 277 277 277 277 277 277 278 279 279 279 279 279 279 279 279 279 279 279 279 279 279
279 283 285 288 290 294 297 298 300 300 299 298 296 294 292 290 288 286 285 285 284 284 284 286 286 287 289 290 290 290 289 288 287 285 283 282 281 280 281 281 281 281 280 280 279 276 273 272 271 271 272 272 273 274 274 275 275 275 276 276 275 275 275 276 277 277 277 277 277 278 278 276 277 278 278 279 279 279 279 279 279 279 279 279 279 279 279 279
278 281 284 287 291 294 297 300 302 303 303 302 300 299 297 295 293 293 293 294 293 292 292 292 292 293 294 294 293 293 292 291 290 288 287 285 282 281 281 281 282 281 281 280 280 278 276 273 272 272 273 273 274 275 275 275 275 275 276 276 277 278 276 275 276 276 277 277 277 278 278 277 277 278 278 278 278 278 278 279 279 279 279 279 279 279 279 279
275 278 283 287 292 296 300 304 307 310 312 311 308 306 304 303 303 304 305 304 302 300 299 299 298 298 297 296 296 295 294 293 292 291 289 288 286 285 283 282 281 281 280 279 279 279 278 277 276 276 276 276 277 278 278 278 278 278 279 278 278 278 278 278 277 277 277 277 277 278 278 279 280 280 280 279 279 279 279 279 279 279 280 280 280 280 280 279
272 278 286 291 296 300 305 309 313 319 324 324 321 316 313 312 311 311 309 307 306 304 304 303 302 302 300 299 299 298 297 297 296 294 293 291 290 288 286 284 283 282 281 280 280 279 279 279 279 278 278 278 279 279 280 280 279 280 280 280 280 278 278 279 279 279 280 279 279 279 280 281 281 281 281 281 281 281 281 281 281 280 280 280 280 280 280 280
272 281 288 295 300 304 308 312 318 324 327 328 327 322 319 316 314 311 309 307 306 304 303 302 303 303 303 303 302 301 300 300 299 298 297 296 294 291 289 287 285 284 283 281 281 280 280 280 280 280 280 281 281 281 282 282 281 281 281 281 282 282 281 282 282 282 282 282 281 281 282 283 283 283 283 283 283 283 282 282 282 281 281 281 281 281 281 281
276 284 290 296 301 306 311 316 320 323 324 325 324 321 319 317 314 310 307 305 303 302 302 303 305 306 307 308 307 306 305 304 302 301 300 299 298 297 294 292 289 287 285 283 281 280 280 281 281 281 282 283 283 284 284 284 284 284 284 283 283 283 282 283 284 284 284 284 283 283 283 284 284 284 284 284 283 283 282 282 282 282 282 282 281 281 281 281
279 286 292 297 303 310 315 317 319 320 321 321 320 319 317 314 311 306 303 302 303 305 306 309 311 313 315 316 317 318 319 318 316 314 311 308 305 302 300 297 295 292 290 288 286 284 283 282 283 283 284 284 284 284 284 284 285 286 286 286 285 285 284 284 285 285 284 284 285 285 284 284 285 285 284 284 283 283 283 283 283 282 282 282 282 282 282 282
284 290 295 301 309 313 314 314 315 317 318 317 315 314 312 309 306 303 303 304 307 310 313 316 320 323 326 330 334 336 337 337 336 334 330 324 318 312 308 304 301 299 297 295 294 292 291 289 289 288 288 288 287 287 287 287 287 287 287 286 286 287 287 287 287 287 286 285 286 287 287 286 287 286 285 285 284 284 284 284 284 283 283 283 283 283 282 282
292 296 301 306 310 310 309 312 314 316 315 314 312 310 308 306 303 302 304 308 313 318 322 327 330 333 336 340 342 343 344 343 342 340 337 335 332 326 320 315 309 305 303 301 299 298 297 295 294 292 291 291 290 290 289 288 288 288 288 288 288 288 288 289 289 289 289 288 287 287 288 288 288 287 287 286 286 285 285 285 284 284 284 284 284 284 283 283
296 297 303 308 309 309 312 315 317 316 314 312 312 310 309 308 306 308 312 318 326 330 332 335 335 336 338 340 342 342 342 340 339 337 333 331 330 327 324 320 315 310 307 305 303 301 300 298 296 295 294 292 291 291 290 290 290 289 289 289 289 289 289 289 290 290 290 289 289 288 288 288 288 287 287 287 287 286 286 286 285 285 285 285 285 285 284 284
294 301 309 312 314 315 318 320 319 317 316 316 316 315 316 318 322 328 332 336 337 334 334 335 334 334 336 339 338 336 337 335 332 331 329 325 323 321 319 318 315 312 309 307 305 304 303 301 301 299 297 296 295 295 294 293 292 292 291 291 291 291 291 291 290 290 289 289 289 289 289 289 289 289 289 288 288 287 287 287 287 287 287 287 286 286 285 285
304 312 316 318 320 321 321 321 321 321 323 325 327 329 334 339 342 344 345 342 338 333 332 332 331 330 331 335 334 332 332 330 328 328 326 323 321 320 319 317 315 314 312 311 310 309 308 306 305 303 301 300 299 298 297 296 295 295 294 293 293 293 293 293 292 292 292 291 292 291 290 289 289 289 289 289 289 290 290 290 290 290 289 289 288 288 287 287
314 317 320 322 322 321 322 324 327 330 333 334 336 342 345 347 345 345 345 340 337 335 332 329 328 326 326 330 331 329 328 326 326 325 324 322 321 320 319 318 316 315 314 312 311 311 310 308 307 305 304 303 302 301 301 300 299 298 297 296 296 295 295 295 295 295 294 293 292 292 292 290 289 290 291 292 293 293 293 293 293 292 292 291 290 290 289 288
316 320 322 322 321 323 328 332 334 337 337 336 339 344 347 350 348 346 344 340 338 338 333 328 327 324 325 327 327 326 325 325 324 324 324 324 323 322 322 322 320 319 317 316 316 315 313 312 310 309 307 306 306 304 303 302 301 300 299 298 298 297 297 296 296 296 296 296 295 296 298 296 294 295 296 297 297 297 296 296 295 295 294 294 293 292 292 292
319 322 321 322 326 333 339 340 338 337 338 342 350 356 359 360 356 352 347 342 337 336 331 325 325 325 326 327 326 327 328 330 331 332 334 334 334 335 333 331 328 326 324 322 320 317 315 313 311 310 308 307 305 304 303 302 301 300 299 298 298 297 296 296 296 296 297 298 298 298 301 301 298 298 299 300 300 299 299 299 298 298 298 297 297 297 297 296
321 322 325 331 340 347 348 345 345 348 354 1 7 9 8 4 0 354 348 343 332 329 328 326 328 329 330 333 335 338 340 343 343 341 342 341 341 338 334 331 328 325 323 319 317 315 313 312 310 308 306 305 304 304 303 301 300 299 298 297 297 296 296 297 297 299 299 300 301 301 302 303 301 301 303 303 303 303 303 303 302 302 302 302 302 302 302 301
324 330 341 350 356 359 360 2 7 11 14 13 11 7 4 0 356 349 345 342 332 330 332 335 338 341 345 350 351 349 348 347 344 341 340 338 335 332 329 327 325 321 318 316 315 314 313 311 309 308 307 307 306 304 302 301 300 299 299 299 299 300 300 302 303 304 304 304 305 305 305 305 304 304 306 306 305 305 306 306 307 307 307 306 306 305 304 304
338 354 7 15 21 25 25 25 23 19 12 8 4 0 356 353 351 346 344 344 342 344 350 356 359 2 0 357 353 349 345 341 339 336 334 331 329 327 325 323 320 318 317 316 315 314 313 312 311 310 308 307 305 304 303 303 302 302 302 303 303 304 305 305 306 307 308 308 309 310 311 312 311 311 313 312 311 312 312 312 312 310 309 308 307 306 305 305
14 27 38 44 44 38 30 24 16 9 5 2 359 355 352 352 353 355 358 0 4 8 11 8 5 2 357 351 348 345 340 335 333 331 329 327 326 325 323 321 320 319 318 316 315 314 313 312 311 309 308 307 306 306 305 305 305 305 305 306 306 307 308 308 309 312 314 315 317 319 321 321 319 319 320 319 318 318 317 316 314 312 311 309 308 308 307 307
48 52 51 46 38 27 20 16 9 3 360 359 358 357 0 6 12 19 23 24 23 18 12 6 359 354 350 346 343 338 334 333 332 331 329 329 328 326 325 323 321 320 319 318 317 316 315 314 312 310 310 310 309 308 308 308 308 309 310 311 312 313 315 317 317 319 321 323 324 325 327 326 324 323 323 322 322 320 319 318 316 315 313 312 312 311 310 309
65 55 43 32 25 19 13 9 5 2 2 6 11 17 26 35 38 36 32 27 21 13 5 359 352 348 343 340 337 334 333 333 331 330 329 327 325 324 323 322 322 322 322 321 320 319 319 317 315 314 314 312 311 311 311 311 313 314 314 316 318 321 324 325 326 328 330 330 331 331 331 329 327 326 326 325 324 323 321 320 319 318 317 316 315 314 313 312
58 42 31 23 16 11 7 6 11 16 22 30 40 45 46 45 41 33 26 19 12 4 358 352 346 342 339 336 334 333 333 333 332 331 330 329 328 328 328 328 327 326 324 323 323 322 322 321 318 317 316 315 315 316 317 319 321 323 323 327 331 333 333 333 334 335 335 334 334 332 331 330 328 328 327 326 325 324 323 322 321 320 319 318 317 316 315 315
45 32 23 16 11 10 13 20 32 42 49 54 55 52 46 39 32 23 16 10 2 357 352 347 343 339 337 335 335 335 335 335 335 335 334 334 334 333 333 331 330 328 327 326 325 324 324 323 321 320 320 320 321 322 324 326 329 331 335 338 339 338 338 338 337 336 335 334 332 331 331 331 329 328 327 326 325 325 325 324 323 323 322 321 319 319 318 317
36 25 17 14 18 26 35 46 55 60 61 57 51 46 38 29 21 13 7 2 356 352 349 345 342 339 338 339 339 339 339 339 339 338 338 337 336 335 334 333 332 331 330 329 327 326 325 325 325 325 326 327 328 330 331 333 335 338 340 339 338 338 339 338 337 335 335 334 334 334 333 331 329 328 328 327 327 327 327 326 325 324 324 323 322 321 320 318
28 22 21 29 40 52 60 64 64 63 57 49 41 38 29 18 12 7 3 358 354 350 347 344 343 342 343 343 343 343 342 341 340 339 338 338 337 337 336 335 334 332 331 330 328 328 328 328 328 329 331 332 335 338 338 340 341 341 340 339 339 339 338 337 337 337 336 336 336 334 332 331 330 329 329 329 329 328 328 327 326 325 324 323 322 321 320 319
28 32 42 54 65 71 71 68 62 56 50 41 33 29 19 11 8 4 359 356 352 349 347 346 346 346 346 345 344 344 342 341 340 340 340 339 339 339 337 336 335 333 332 331 330 330 330 331 332 333 335 338 342 343 343 344 343 341 341 341 341 340 338 339 339 339 337 335 334 333 333 332 332 331 331 331 330 329 328 327 326 325 324 324 323 321 320 318
44 56 66 73 76 75 71 64 54 46 40 32 27 21 13 9 6 1 357 355 353 351 350 350 349 348 347 346 345 344 342 342 342 341 341 341 340 339 338 337 335 334 332 332 332 331 332 335 337 339 342 343 344 345 344 344 343 342 343 343 343 342 342 343 342 339 337 335 333 334 334 333 332 333 332 330 330 329 329 327 327 326 325 324 322 321 319 318
67 74 78 79 76 72 65 57 47 36 30 27 23 16 10 6 3 360 359 357 355 354 353 352 351 350 348 347 346 345 344 344 343 343 343 342 341 340 339 337 335 335 334 333 334 335 336 339 342 344 346 345 345 345 345 344 343 344 344 343 343 343 342 342 340 338 337 335 333 333 335 333 332 333 331 329 330 330 329 328 327 326 325 323 322 321 320 319
80 81 80 76 70 63 55 48 40 31 27 24 18 12 8 5 3 2 1 359 358 356 355 354 352 351 349 348 347 347 346 345 345 345 344 343 342 340 339 338 336 336 336 336 337 339 341 343 344 346 346 346 346 346 345 344 344 344 344 344 344 343 342 340 339 338 337 335 333 332 333 333 331 331 330 328 329 330 329 328 327 326 325 324 323 321 320 318
84 83 77 69 61 53 42 37 36 29 24 20 14 10 7 5 5 5 2 1 359 358 356 355 353 351 351 350 349 348 347 347 347 346 345 344 342 341 339 338 337 337 337 338 340 342 344 346 346 346 346 346 346 345 345 345 345 345 345 345 345 344 343 340 338 338 337 335 333 330 330 331 331 331 329 328 329 330 328 327 326 325 325 324 322 321 320 318
83 77 69 61 54 44 32 32 34 26 20 17 12 9 8 8 7 6 4 2 0 359 357 355 353 353 352 351 351 350 349 349 348 347 345 344 343 341 340 339 338 339 339 341 343 345 346 346 345 345 345 345 345 344 345 345 345 346 346 346 346 344 343 340 338 337 336 334 332 329 329 330 331 331 329 329 331 330 328 327 326 325 324 323 322 321 320 319
76 69 61 53 46 36 29 33 32 22 18 15 10 10 10 9 8 6 5 4 2 359 357 356 355 354 354 353 352 351 350 349 348 347 346 345 343 342 341 340 340 340 341 343 345 346 346 345 344 344 344 344 345 345 345 346 346 347 347 346 346 344 342 339 337 336 335 334 333 331 331 332 333 332 331 330 331 329 328 327 326 325 325 324 323 322 321 320
69 60 51 44 39 31 30 32 26 19 16 12 10 12 12 10 8 8 6 4 2 360 358 357 357 356 355 355 353 352 351 349 349 348 346 345 344 342 341 341 341 341 342 344 346 347 345 344 344 345 345 345 346 346 346 347 348 348 347 346 345 343 341 339 337 336 335 334 334 332 331 333 333 331 331 331 331 330 329 328 328 327 327 326 325 324 323 321
62 52 43 37 34 31 31 28 21 17 14 11 12 14 12 11 10 9 6 4 2 0 359 358 357 357 356 355 354 352 351 350 349 348 347 345 344 343 342 342 342 343 344 346 347 346 345 344 345 346 346 346 347 347 348 348 348 347 346 345 343 342 341 339 338 337 335 334 333 331 330 332 332 330 331 332 331 331 331 330 329 328 327 327 325 324 323 321
55 45 38 34 32 31 28 23 18 15 13 13 15 15 13 12 11 9 7 4 3 1 360 359 358 357 356 355 354 352 351 350 349 348 347 346 344 343 343 343 343 344 345 346 346 345 344 344 345 346 347 346 346 347 347 348 347 345 344 344 343 342 342 340 339 337 334 332 332 330 329 332 333 330 331 332 331 331 331 329 329 328 327 327 325 324 323 321
47 40 35 30 29 28 24 20 17 14 13 15 17 15 13 12 11 9 7 4 3 1 359 358 358 357 356 355 354 353 352 351 350 349 348 346 345 344 344 345 344 345 346 346 345 343 343 344 345 345 346 346 346 347 347 347 346 344 343 343 342 342 342 341 339 337 334 332 332 331 330 331 332 331 332 333 332 331 331 330 329 329 328 327 326 325 324 322
40 36 32 27 26 25 21 18 16 14 15 17 16 14 13 12 10 9 7 4 2 0 359 358 358 357 356 355 354 353 352 352 350 349 348 347 346 346 346 346 346 346 346 344 343 342 343 344 344 344 345 346 347 347 346 346 345 344 343 342 342 342 341 341 340 338 335 332 331 331 331 332 331 331 333 334 333 332 331 331 330 329 328 328 327 326 324 322
35 33 29 24 24 23 19 17 15 14 16 16 15 13 11 11 9 7 6 4 1 360 359 358 358 357 356 355 354 354 353 352 351 350 349 348 347 348 348 348 348 347 346 343 341 342 343 342 342 343 345 345 345 345 345 345 345 345 343 342 342 342 341 341 341 338 335 333 331 331 332 333 332 332 334 334 333 333 332 331 330 329 329 329 328 326 325 323
32 30 26 21 22 22 18 16 15 15 16 15 13 11 10 9 7 5 4 3 1 360 359 358 358 357 356 355 355 355 354 353 352 351 350 349 349 350 350 350 349 348 344 342 340 340 339 339 340 342 343 344 343 343 344 344 344 344 343 342 342 342 340 341 341 339 336 333 332 332 332 333 333 334 335 335 334 333 333 332 331 330 330 330 329 328 326 324
29 27 23 19 21 21 17 15 14 15 15 13 11 9 7 6 5 3 2 2 0 359 359 358 357 356 356 356 356 355 355 354 353 352 351 351 351 352 352 351 350 347 344 341 339 337 337 337 338 340 341 342 342 343 344 344 343 344 343 343 342 341 340 340 341 340 336 333 332 332 333 333 334 334 335 335 334 334 334 333 331 331 332 331 330 329 328 326
28 24 20 18 20 18 15 13 13 14 13 11 9 7 4 3 2 1 1 0 360 359 358 358 357 357 357 357 356 356 355 354 354 354 353 353 354 354 353 352 351 348 343 340 337 336 335 336 338 339 341 342 341 342 343 342 342 343 343 342 341 340 339 339 341 341 336 333 333 333 333 333 334 335 336 337 336 335 334 333 332 332 333 332 331 330 328 326
Height
5802 5802 5802 5802 5802 5802 5802 5802 5801 5801 5801 5800 5800 5800 5800 5799 5799 5799 5799 5799 5799 5798 5798 5799 5799 5799 5799 5798 5798 5798 5798 5798 5798 5798 5797 5797 5797 5797 5796 5796 5796 5796 5796 5796 5796 5796 5795 5795 5795 5795 5794 5794 5793 5793 5793 5793 5792 5792 5792 5792 5792 5791 5789 5788 5787 5787 5786 5784 5784 5784 5782 5781 5780 5780 5778 5777 5776 5775 5773 5772 5772 5771 5770 5769 5768 5767 5766 5765
5803 5802 5802 5802 5802 5802 5802 5802 5802 5801 5801 5801 5800 5800 5800 5799 5799 5799 5799 5799 5798 5798 5798 5798 5798 5798 5798 5798 5798 5797 5797 5797 5797 5797 5796 5796 5796 5796 5795 5795 5795 5795 5795 5795 5795 5794 5794 5794 5793 5793 5793 5792 5792 5791 5791 5791 5790 5790 5789 5789 5789 5788 5786 5785 5784 5784 5784 5782 5781 5781 5779 5778 5777 5777 5776 5774 5773 5771 5769 5769 5769 5767 5767 5766 5764 5763 5762 5761
5803 5803 5803 5802 5802 5802 5802 5802 5802 5801 5801 5801 5801 5800 5800 5800 5800 5799 5799 5799 5798 5798 5798 5798 5798 5797 5797 5797 5797 5796 5796 5796 5796 5796 5795 5795 5795 5795 5794 5794 5794 5793 5793 5793 5793 5793 5792 5792 5791 5791 5791 5790 5790 5789 5789 5788 5787 5787 5787 5786 5786 5785 5783 5782 5782 5781 5781 5779 5778 5778 5777 5775 5774 5773 5772 5771 5769 5768 5767 5766 5765 5763 5763 5762 5760 5759 5758 5757
5803 5803 5803 5803 5802 5802 5802 5801 5801 5801 5801 5801 5800 5800 5800 5800 5800 5799 5799 5799 5798 5798 5798 5797 5797 5797 5797 5797 5796 5796 5795 5795 5795 5795 5795 5794 5794 5794 5793 5793 5792 5792 5792 5791 5791 5791 5790 5790 5789 5789 5788 5788 5787 5787 5786 5786 5785 5785 5784 5783 5783 5782 5780 5780 5779 5778 5777 5776 5775 5775 5773 5772 5771 5769 5768 5768 5766 5764 5764 5762 5760 5759 5759 5758 5756 5754 5753 5752
5803 5803 5803 5803 5802 5802 5801 5801 5801 5801 5801 5800 5800 5800 5799 5799 5799 5798 5798 5798 5798 5797 5797 5797 5797 5796 5796 5796 5795 5795 5795 5795 5795 5794 5794 5794 5793 5793 5792 5792 5791 5791 5790 5789 5789 5788 5788 5788 5787 5787 5786 5785 5785 5784 5784 5783 5782 5782 5782 5780 5780 5779 5777 5777 5777 5775 5774 5773 5772 5771 5770 5769 5768 5766 5764 5764 5763 5761 5760 5758 5756 5755 5753 5753 5751 5750 5748 5747
5803 5803 5803 5802 5802 5802 5801 5801 5801 5801 5800 5800 5799 5799 5799 5798 5798 5797 5797 5796 5796 5796 5796 5795 5795 5795 5795 5794 5794 5794 5793 5793 5793 5793 5793 5792 5792 5791 5791 5790 5789 5789 5788 5788 5787 5786 5786 5785 5785 5784 5784 5783 5783 5782 5781 5781 5780 5779 5779 5778 5777 5776 5775 5774 5773 5772 5771 5770 5769 5768 5766 5765 5764 5762 5761 5761 5759 5757 5756 5754 5752 5750 5748 5747 5746 5745 5743 5742
5803 5802 5802 5802 5802 5801 5801 5801 5801 5800 5800 5799 5799 5798 5798 5797 5797 5796 5796 5795 5795 5794 5794 5794 5793 5793 5793 5792 5792 5792 5792 5791 5791 5791 5790 5790 5789 5789 5788 5788 5787 5787 5786 5785 5785 5784 5784 5783 5782 5782 5781 5781 5780 5779 5779 5778 5777 5777 5776 5776 5774 5773 5772 5771 5770 5769 5768 5767 5765 5764 5763 5762 5760 5758 5758 5757 5755 5753 5751 5750 5748 5746 5744 5743 5741 5740 5738 5737
5802 5802 5802 5801 5801 5801 5801 5800 5800 5800 5799 5799 5798 5798 5797 5797 5796 5796 5795 5795 5794 5793 5793 5792 5792 5791 5791 5791 5790 5790 5790 5789 5789 5788 5787 5787 5787 5786 5786 5785 5785 5784 5783 5783 5782 5782 5781 5780 5780 5779 5779 5778 5777 5776 5776 5775 5775 5774 5773 5772 5771 5770 5769 5768 5767 5766 5764 5763 5761 5760 5759 5758 5756 5753 5754 5753 5750 5748 5746 5745 5744 5742 5740 5738 5737 5735 5733 5732
5802 5802 5801 5801 5801 5800 5800 5800 5799 5799 5799 5798 5798 5797 5796 5796 5795 5795 5794 5794 5793 5792 5792 5791 5791 5790 5790 5790 5789 5789 5788 5788 5787 5786 5785 5785 5784 5783 5783 5782 5782 5781 5780 5780 5779 5779 5778 5778 5777 5776 5776 5775 5774 5774 5773 5772 5771 5771 5770 5769 5768 5767 5766 5765 5763 5762 5760 5759 5757 5756 5755 5754 5751 5749 5749 5749 5746 5744 5742 5740 5739 5737 5736 5734 5732 5730 5728 5726
5801 5801 5801 5800 5800 5800 5799 5799 5799 5798 5798 5797 5797 5796 5796 5795 5794 5794 5793 5792 5792 5791 5791 5790 5790 5789 5789 5788 5788 5787 5787 5786 5785 5784 5783 5782 5782 5781 5780 5779 5778 5778 5777 5777 5776 5776 5775 5775 5774 5773 5773 5772 5772 5771 5770 5769 5768 5768 5766 5765 5764 5763 5762 5761 5759 5758 5756 5755 5753 5751 5750 5749 5747 5745 5745 5744 5741 5739 5738 5736 5734 5733 5731 5729 5727 5725 5722 5721
5801 5800 5800 5799 5799 5799 5798 5798 5798 5797 5797 5796 5796 5795 5795 5794 5793 5792 5791 5791 5790 5790 5789 5789 5789 5788 5787 5787 5786 5785 5785 5784 5783 5782 5781 5780 5779 5778 5777 5776 5776 5775 5774 5773 5773 5772 5772 5771 5771 5770 5770 5769 5769 5768 5767 5766 5765 5764 5763 5762 5761 5759 5758 5757 5755 5753 5752 5750 5749 5747 5745 5744 5743 5741 5740 5739 5737 5735 5733 5731 5729 5727 5725 5723 5721 5719 5717 5715
5800 5800 5799 5799 5798 5798 5798 5797 5797 5796 5796 5795 5794 5794 5793 5792 5792 5791 5790 5790 5789 5789 5789 5788 5787 5787 5786 5785 5784 5783 5782 5781 5780 5780 5779 5778 5777 5776 5775 5774 5773 5772 5771 5770 5769 5769 5769 5768 5767 5767 5766 5766 5765 5764 5764 5763 5762 5760 5759 5758 5757 5755 5754 5753 5751 5749 5748 5746 5745 5743 5739 5739 5740 5737 5736 5734 5731 5730 5728 5726 5724 5721 5719 5717 5715 5713 5711 5708
5799 5799 5799 5798 5798 5798 5797 5797 5796 5795 5794 5793 5792 5792 5791 5791 5790 5790 5789 5789 5789 5788 5788 5787 5786 5785 5784 5783 5782 5781 5780 5779 5778 5777 5776 5775 5774 5773 5772 5771 5770 5769 5768 5767 5766 5766 5765 5765 5764 5763 5763 5762 5762 5761 5760 5759 5758 5757 5756 5754 5753 5751 5749 5749 5748 5744 5744 5742 5741 5739 5733 5733 5736 5733 5731 5729 5726 5725 5723 5720 5718 5715 5713 5711 5708 5706 5704 5702
5798 5798 5798 5798 5797 5797 5796 5796 5795 5794 5793 5792 5791 5790 5790 5789 5789 5789 5788 5788 5787 5786 5786 5785 5784 5783 5782 5781 5780 5779 5777 5776 5775 5774 5773 5772 5771 5770 5769 5768 5767 5766 5765 5764 5763 5763 5762 5761 5761 5760 5759 5759 5758 5757 5757 5756 5754 5754 5752 5751 5750 5748 5743 5745 5744 5740 5740 5738 5736 5735 5728 5728 5731 5727 5725 5722 5720 5719 5717 5714 5712 5709 5707 5704 5702 5699 5697 5695
5798 5798 5797 5797 5796 5796 5795 5794 5794 5793 5792 5791 5791 5790 5789 5789 5788 5788 5787 5786 5785 5785 5784 5783 5782 5781 5780 5779 5778 5777 5775 5774 5773 5772 5771 5770 5768 5767 5766 5765 5764 5763 5762 5761 5760 5760 5759 5758 5757 5757 5756 5755 5755 5754 5753 5752 5750 5750 5749 5746 5746 5744 5739 5739 5739 5736 5735 5732 5731 5729 5724 5724 5725 5721 5718 5716 5713 5712 5709 5707 5705 5702 5700 5697 5695 5693 5690 5688
5797 5797 5796 5796 5795 5795 5794 5793 5793 5792 5792 5791 5790 5789 5789 5788 5787 5787 5786 5785 5784 5783 5782 5781 5780 5779 5777 5776 5775 5774 5773 5772 5770 5769 5768 5767 5766 5765 5764 5763 5762 5761 5760 5759 5758 5757 5756 5755 5754 5753 5752 5752 5751 5750 5749 5747 5746 5746 5746 5742 5740 5740 5736 5733 5734 5732 5729 5727 5725 5724 5720 5719 5718 5715 5712 5710 5707 5705 5702 5700 5698 5695 5693 5691 5688 5686 5683 5681
5796 5796 5796 5795 5794 5794 5793 5792 5792 5791 5791 5790 5790 5789 5788 5787 5787 5786 5785 5784 5782 5781 5780 5779 5778 5776 5775 5774 5773 5772 5771 5769 5768 5767 5766 5765 5764 5763 5761 5761 5759 5758 5757 5755 5755 5754 5753 5752 5751 5750 5749 5748 5748 5746 5745 5744 5741 5740 5740 5739 5736 5735 5732 5729 5729 5727 5725 5722 5719 5718 5717 5714 5712 5710 5707 5704 5701 5698 5696 5693 5691 5689 5687 5685 5682 5680 5677 5675
5795 5795 5795 5794 5793 5793 5792 5792 5791 5791 5790 5790 5789 5788 5787 5786 5785 5784 5783 5782 5780 5779 5778 5777 5775 5774 5773 5772 5771 5770 5768 5767 5766 5765 5763 5762 5761 5760 5759 5758 5757 5755 5754 5752 5751 5750 5750 5749 5748 5747 5746 5745 5744 5743 5742 5740 5739 5737 5735 5734 5732 5730 5728 5725 5724 5722 5720 5717 5714 5712 5712 5710 5707 5705 5702 5698 5695 5692 5690 5688 5686 5683 5681 5678 5676 5673 5671 5668
5795 5794 5794 5793 5793 5792 5792 5791 5791 5790 5790 5789 5788 5787 5786 5785 5783 5782 5781 5780 5778 5777 5776 5775 5774 5773 5772 5771 5769 5768 5767 5766 5764 5763 5762 5760 5759 5758 5756 5755 5754 5753 5751 5750 5749 5748 5747 5746 5745 5744 5743 5742 5741 5739 5738 5737 5735 5734 5732 5730 5728 5726 5723 5721 5720 5717 5714 5712 5710 5707 5706 5705 5702 5699 5696 5692 5690 5687 5684 5682 5679 5677 5675 5672 5669 5667 5664 5661
5794 5794 5793 5793 5792 5792 5792 5791 5791 5790 5789 5788 5787 5786 5784 5783 5782 5780 5779 5778 5777 5776 5775 5774 5773 5772 5771 5770 5769 5767 5766 5765 5763 5762 5760 5759 5758 5756 5755 5753 5752 5750 5749 5748 5747 5745 5745 5743 5742 5741 5740 5739 5737 5736 5735 5733 5732 5730 5728 5726 5724 5722 5719 5718 5715 5712 5709 5706 5706 5704 5701 5699 5696 5692 5690 5687 5684 5682 5678 5676 5673 5671 5668 5666 5663 5660 5658 5655
5794 5793 5793 5792 5792 5792 5791 5791 5790 5789 5788 5786 5785 5783 5782 5781 5780 5779 5778 5777 5776 5775 5774 5773 5772 5771 5770 5769 5768 5767 5765 5764 5763 5761 5759 5758 5756 5755 5753 5752 5750 5749 5747 5746 5745 5744 5742 5741 5740 5739 5737 5736 5735 5733 5732 5730 5728 5726 5725 5722 5720 5718 5715 5714 5711 5708 5705 5701 5700 5700 5697 5694 5691 5687 5684 5681 5678 5676 5673 5671 5668 5665 5663 5660 5657 5655 5652 5649
5794 5793 5793 5792 5792 5791 5790 5789 5788 5787 5786 5784 5783 5782 5781 5780 5779 5778 5777 5776 5775 5774 5774 5773 5772 5771 5770 5769 5767 5766 5765 5763 5762 5760 5758 5757 5755 5753 5752 5750 5749 5747 5745 5744 5743 5741 5740 5739 5737 5736 5735 5733 5731 5730 5728 5727 5725 5723 5721 5719 5716 5714 5711 5710 5707 5704 5701 5697 5694 5694 5692 5689 5685 5682 5679 5676 5672 5670 5667 5665 5662 5659 5657 5653 5651 5648 5645 5643
5793 5793 5792 5792 5791 5790 5789 5788 5787 5785 5784 5783 5782 5781 5781 5779 5778 5777 5777 5776 5775 5774 5773 5773 5772 5771 5769 5768 5767 5765 5763 5762 5760 5758 5757 5755 5753 5752 5750 5749 5747 5745 5743 5742 5740 5739 5737 5736 5735 5733 5731 5730 5728 5727 5725 5722 5721 5719 5717 5715 5712 5710 5707 5705 5703 5699 5697 5693 5689 5687 5686 5684 5680 5677 5674 5670 5667 5664 5661 5658 5655 5653 5650 5647 5644 5641 5638 5635
5792 5792 5791 5791 5790 5789 5787 5786 5785 5785 5784 5783 5782 5781 5780 5779 5778 5777 5776 5776 5775 5774 5773 5772 5771 5770 5769 5767 5765 5764 5762 5760 5758 5757 5755 5753 5752 5750 5748 5747 5745 5743 5741 5740 5738 5736 5735 5733 5732 5730 5728 5727 5725 5723 5722 5719 5717 5715 5713 5711 5708 5706 5703 5700 5698 5695 5691 5689 5685 5682 5679 5676 5675 5672 5668 5665 5661 5658 5655 5652 5649 5646 5643 5640 5637 5634 5631 5627
5792 5791 5790 5790 5789 5787 5786 5786 5785 5784 5784 5783 5782 5781 5780 5779 5778 5777 5776 5775 5774 5774 5773 5772 5770 5769 5768 5766 5764 5762 5761 5759 5757 5755 5753 5752 5750 5749 5747 5745 5743 5741 5740 5738 5736 5735 5733 5731 5729 5728 5726 5724 5722 5720 5719 5716 5713 5711 5709 5706 5704 5701 5699 5696 5693 5690 5686 5682 5679 5677 5672 5667 5667 5665 5661 5658 5655 5651 5649 5645 5642 5639 5636 5633 5630 5627 5623 5620
5791 5790 5790 5789 5788 5787 5786 5785 5785 5784 5783 5782 5781 5780 5779 5778 5777 5776 5775 5774 5774 5773 5772 5771 5770 5768 5767 5765 5763 5761 5759 5758 5756 5754 5753 5751 5749 5747 5746 5744 5742 5740 5738 5736 5735 5733 5731 5729 5727 5725 5723 5721 5719 5717 5715 5713 5710 5707 5705 5702 5699 5696 5694 5691 5688 5686 5682 5678 5674 5672 5668 5661 5659 5658 5655 5652 5649 5645 5642 5639 5636 5633 5629 5626 5623 5620 5616 5613
5790 5790 5789 5788 5787 5786 5786 5785 5785 5784 5783 5782 5781 5780 5779 5778 5777 5776 5775 5774 5773 5772 5772 5770 5769 5767 5766 5764 5762 5760 5759 5757 5755 5753 5752 5750 5748 5747 5745 5743 5741 5739 5737 5735 5733 5731 5729 5727 5724 5722 5720 5718 5715 5713 5711 5709 5706 5703 5700 5698 5695 5692 5689 5687 5683 5680 5677 5674 5670 5667 5664 5659 5654 5652 5650 5646 5644 5641 5637 5634 5630 5627 5623 5620 5617 5613 5610 5606
5790 5789 5788 5787 5787 5786 5786 5785 5784 5784 5783 5782 5781 5780 5779 5778 5777 5776 5775 5774 5773 5772 5771 5770 5768 5766 5765 5763 5762 5760 5758 5756 5754 5752 5750 5749 5747 5746 5743 5741 5739 5737 5735 5732 5730 5728 5725 5723 5721 5718 5716 5714 5711 5709 5706 5704 5701 5699 5696 5693 5690 5687 5684 5681 5678 5676 5672 5669 5666 5662 5659 5655 5650 5648 5646 5641 5639 5637 5633 5629 5625 5621 5618 5614 5611 5607 5604 5600
5789 5789 5788 5787 5787 5786 5786 5785 5785 5784 5783 5782 5781 5779 5778 5777 5776 5775 5774 5773 5772 5771 5770 5769 5767 5766 5764 5763 5761 5760 5758 5756 5754 5752 5750 5748 5746 5744 5741 5739 5737 5734 5732 5730 5727 5725 5722 5720 5717 5714 5712 5710 5707 5705 5702 5699 5697 5694 5691 5689 5686 5683 5680 5677 5674 5671 5668 5665 5662 5659 5655 5651 5645 5643 5641 5636 5632 5630 5627 5624 5619 5616 5612 5609 5605 5602 5598 5594
5789 5789 5788 5788 5787 5787 5786 5786 5785 5784 5783 5781 5780 5779 5778 5777 5776 5775 5774 5773 5772 5770 5769 5768 5767 5765 5764 5762 5760 5758 5756 5754 5752 5750 5748 5746 5743 5741 5739 5736 5734 5731 5729 5727 5724 5722 5719 5717 5714 5711 5709 5706 5703 5701 5698 5695 5692 5689 5687 5684 5681 5678 5676 5673 5670 5667 5664 5660 5658 5655 5652 5647 5641 5638 5636 5632 5628 5624 5621 5618 5615 5611 5607 5603 5600 5596 5592 5588
5790 5789 5789 5788 5788 5787 5786 5786 5784 5783 5782 5781 5780 5779 5778 5777 5776 5775 5774 5773 5771 5770 5769 5768 5766 5764 5762 5761 5759 5757 5755 5752 5750 5747 5745 5742 5739 5737 5735 5732 5730 5728 5726 5723 5721 5719 5717 5714 5711 5708 5705 5702 5699 5697 5694 5691 5688 5685 5682 5679 5676 5673 5670 5668 5665 5663 5661 5658 5655 5652 5649 5645 5639 5635 5632 5629 5625 5621 5617 5613 5610 5606 5602 5598 5594 5589 5585 5581
5790 5790 5789 5789 5788 5787 5786 5785 5784 5783 5782 5781 5780 5779 5778 5777 5776 5775 5774 5773 5772 5770 5769 5767 5765 5763 5761 5760 5758 5755 5753 5751 5748 5746 5743 5741 5738 5735 5733 5731 5728 5725 5723 5721 5718 5716 5714 5711 5708 5705 5702 5699 5696 5693 5690 5687 5684 5681 5678 5676 5673 5670 5667 5665 5662 5659 5657 5654 5650 5647 5644 5641 5637 5633 5629 5625 5621 5617 5613 5608 5604 5600 5596 5591 5587 5583 5578 5574
5791 5790 5790 5789 5788 5787 5786 5785 5784 5783 5782 5781 5780 5779 5778 5777 5776 5775 5774 5773 5772 5770 5768 5767 5765 5763 5760 5758 5756 5754 5751 5749 5746 5744 5741 5739 5736 5734 5731 5729 5726 5724 5721 5718 5715 5713 5711 5708 5705 5702 5699 5695 5692 5688 5685 5682 5679 5676 5673 5670 5667 5664 5662 5659 5656 5654 5651 5649 5646 5643 5640 5636 5632 5629 5625 5621 5617 5613 5609 5604 5599 5595 5591 5586 5581 5576 5571 5567
5791 5790 5790 5789 5788 5787 5786 5785 5784 5783 5782 5781 5781 5780 5779 5778 5777 5776 5774 5773 5771 5770 5768 5766 5764 5762 5759 5757 5754 5752 5749 5747 5744 5741 5739 5736 5734 5731 5728 5726 5724 5721 5719 5716 5713 5710 5708 5705 5701 5698 5694 5690 5687 5683 5680 5677 5674 5671 5668 5665 5663 5661 5658 5655 5652 5650 5647 5645 5642 5638 5636 5632 5628 5625 5621 5617 5613 5609 5604 5599 5595 5590 5585 5581 5576 5571 5565 5560
5791 5790 5789 5789 5788 5787 5786 5785 5784 5784 5783 5782 5781 5780 5779 5778 5777 5776 5774 5772 5770 5769 5767 5764 5762 5760 5757 5755 5752 5750 5747 5744 5742 5739 5737 5734 5732 5729 5727 5724 5721 5719 5716 5713 5710 5707 5704 5701 5697 5693 5689 5686 5683 5680 5677 5674 5671 5669 5667 5664 5662 5659 5657 5654 5651 5647 5644 5641 5637 5632 5630 5627 5624 5621 5617 5612 5608 5604 5599 5594 5589 5584 5579 5574 5569 5564 5559 5554
5791 5790 5789 5789 5788 5787 5786 5786 5785 5785 5784 5783 5782 5781 5779 5778 5777 5775 5773 5771 5769 5767 5765 5763 5760 5757 5755 5753 5750 5748 5745 5743 5740 5738 5735 5732 5730 5727 5724 5722 5719 5716 5713 5709 5706 5702 5699 5696 5692 5689 5685 5683 5680 5677 5674 5672 5670 5668 5665 5663 5660 5657 5654 5651 5648 5644 5640 5637 5634 5631 5626 5622 5618 5614 5612 5607 5603 5598 5594 5589 5584 5578 5573 5568 5563 5558 5553 5547
5791 5790 5789 5789 5788 5788 5787 5787 5786 5785 5784 5784 5782 5781 5779 5778 5776 5774 5773 5771 5768 5766 5764 5761 5759 5756 5754 5751 5749 5746 5744 5741 5738 5736 5733 5730 5728 5725 5722 5719 5716 5712 5709 5705 5702 5698 5695 5692 5689 5686 5683 5680 5678 5675 5673 5670 5668 5666 5663 5660 5657 5654 5651 5647 5643 5640 5637 5634 5632 5629 5624 5619 5614 5608 5604 5601 5597 5592 5587 5583 5579 5573 5568 5562 5557 5551 5546 5541
5791 5790 5790 5790 5789 5789 5788 5788 5787 5786 5785 5784 5782 5780 5779 5778 5776 5774 5772 5770 5767 5765 5763 5760 5758 5756 5753 5751 5748 5745 5742 5740 5737 5734 5732 5729 5726 5723 5720 5716 5713 5709 5706 5702 5698 5694 5691 5688 5685 5683 5680 5678 5676 5674 5671 5669 5667 5664 5661 5657 5654 5651 5647 5643 5640 5636 5633 5629 5626 5624 5620 5615 5610 5605 5599 5594 5590 5585 5579 5575 5570 5566 5561 5556 5550 5545 5539 5533
5792 5791 5791 5791 5790 5790 5789 5788 5787 5787 5785 5784 5782 5780 5779 5777 5775 5773 5771 5769 5767 5764 5762 5760 5757 5755 5752 5749 5747 5744 5741 5739 5736 5733 5730 5727 5724 5721 5718 5714 5710 5706 5702 5698 5695 5691 5688 5685 5682 5680 5678 5676 5674 5672 5669 5667 5665 5662 5659 5655 5652 5649 5646 5643 5640 5635 5630 5625 5620 5618 5617 5611 5606 5602 5597 5590 5586 5581 5575 5569 5564 5559 5554 5549 5543 5537 5531 5525
5792 5792 5792 5792 5792 5791 5790 5789 5788 5787 5785 5783 5782 5781 5779 5777 5775 5773 5770 5768 5766 5763 5761 5758 5756 5753 5751 5748 5745 5743 5740 5737 5735 5732 5729 5726 5722 5719 5716 5712 5707 5703 5699 5695 5692 5688 5685 5683 5681 5679 5677 5675 5672 5670 5668 5665 5662 5659 5656 5653 5650 5647 5644 5640 5638 5634 5629 5624 5617 5612 5611 5608 5603 5598 5593 5587 5583 5577 5571 5565 5559 5553 5548 5542 5536 5529 5524 5518
5794 5794 5793 5793 5792 5791 5790 5790 5788 5786 5785 5783 5782 5780 5778 5776 5774 5772 5769 5767 5765 5762 5760 5757 5755 5752 5749 5747 5744 5741 5739 5736 5733 5730 5727 5724 5721 5717 5713 5709 5705 5700 5696 5693 5689 5686 5684 5682 5680 5678 5676 5674 5672 5669 5667 5663 5660 5656 5653 5650 5647 5644 5640 5636 5632 5629 5625 5621 5616 5609 5606 5604 5601 5595 5589 5584 5579 5573 5567 5561 5555 5549 5542 5536 5530 5523 5516 5510
5795 5795 5794 5794 5793 5792 5791 5790 5788 5786 5785 5783 5782 5780 5778 5775 5773 5771 5769 5767 5764 5762 5759 5756 5754 5751 5748 5746 5743 5740 5737 5734 5731 5728 5725 5722 5718 5714 5710 5706 5702 5698 5694 5690 5687 5684 5682 5680 5679 5677 5675 5673 5671 5668 5665 5662 5658 5655 5651 5648 5645 5641 5638 5633 5629 5626 5622 5618 5614 5608 5602 5598 5595 5590 5584 5579 5574 5568 5562 5556 5550 5544 5538 5532 5525 5517 5510 5503
5796 5796 5795 5794 5793 5792 5791 5789 5788 5787 5785 5783 5781 5779 5777 5775 5773 5771 5768 5766 5763 5761 5758 5756 5753 5750 5747 5744 5741 5738 5736 5733 5730 5726 5723 5720 5716 5712 5707 5703 5699 5695 5691 5688 5686 5683 5681 5679 5677 5675 5673 5671 5669 5666 5663 5660 5657 5653 5650 5646 5642 5638 5635 5631 5626 5622 5619 5614 5609 5603 5596 5590 5586 5582 5577 5572 5568 5563 5556 5550 5544 5538 5532 5524 5517 5510 5503 5496
5797 5796 5796 5795 5794 5793 5791 5789 5788 5787 5785 5783 5781 5779 5777 5775 5772 5770 5768 5765 5763 5760 5757 5755 5752 5749 5746 5743 5740 5737 5734 5731 5728 5724 5721 5717 5713 5709 5704 5700 5696 5692 5689 5687 5684 5682 5680 5678 5675 5673 5670 5668 5665 5662 5659 5656 5653 5650 5647 5643 5640 5636 5632 5627 5623 5618 5613 5609 5604 5598 5593 5588 5581 5576 5571 5566 5561 5555 5549 5541 5534 5527 5521 5514 5507 5500 5493 5487
5798 5797 5796 5795 5794 5793 5791 5789 5788 5786 5785 5783 5781 5778 5776 5774 5772 5770 5767 5765 5762 5759 5756 5753 5750 5747 5744 5742 5739 5735 5732 5729 5726 5723 5719 5715 5711 5706 5702 5698 5694 5690 5687 5685 5683 5680 5679 5676 5674 5671 5669 5666 5663 5660 5657 5654 5651 5648 5646 5642 5638 5634 5630 5625 5620 5615 5609 5605 5601 5596 5591 5588 5583 5574 5568 5562 5554 5547 5541 5534 5527 5520 5513 5506 5499 5493 5486 5479
5798 5798 5797 5796 5794 5792 5791 5790 5788 5786 5785 5783 5780 5778 5776 5774 5772 5769 5767 5764 5761 5758 5755 5752 5749 5746 5743 5740 5737 5734 5731 5728 5724 5721 5717 5712 5708 5704 5699 5695 5692 5688 5686 5683 5681 5680 5678 5676 5673 5671 5668 5665 5662 5659 5656 5653 5650 5646 5643 5640 5636 5632 5628 5623 5618 5614 5608 5603 5599 5594 5586 5583 5580 5572 5565 5559 5551 5543 5537 5530 5523 5516 5509 5501 5494 5487 5480 5473
5799 5798 5797 5796 5794 5793 5791 5790 5788 5786 5784 5782 5780 5778 5776 5774 5771 5769 5766 5763 5760 5757 5754 5751 5748 5745 5742 5739 5736 5733 5730 5726 5723 5719 5715 5710 5706 5701 5697 5693 5690 5687 5684 5682 5680 5678 5676 5674 5672 5670 5667 5665 5662 5658 5655 5652 5648 5645 5640 5637 5633 5629 5625 5621 5616 5611 5605 5599 5595 5591 5583 5577 5573 5568 5561 5555 5547 5540 5533 5525 5518 5511 5503 5496 5488 5481 5473 5466
5800 5799 5797 5796 5795 5793 5791 5790 5788 5786 5784 5782 5780 5778 5776 5774 5771 5768 5765 5762 5760 5757 5753 5750 5747 5744 5741 5738 5735 5732 5728 5725 5721 5717 5712 5708 5703 5699 5695 5691 5688 5685 5682 5680 5679 5677 5674 5672 5670 5668 5665 5663 5660 5657 5653 5650 5646 5642 5638 5634 5630 5625 5621 5617 5613 5607 5602 5595 5590 5586 5581 5574 5568 5562 5556 5549 5542 5534 5527 5520 5512 5505 5498 5490 5482 5475 5467 5460
5800 5799 5798 5796 5795 5793 5792 5790 5788 5786 5784 5781 5780 5778 5775 5773 5770 5767 5765 5762 5759 5756 5752 5749 5746 5743 5740 5737 5734 5730 5726 5723 5719 5714 5710 5705 5701 5697 5693 5689 5686 5683 5681 5679 5677 5675 5673 5671 5669 5667 5664 5661 5658 5655 5652 5648 5644 5640 5636 5631 5627 5622 5617 5613 5609 5604 5597 5591 5585 5580 5576 5571 5564 5556 5550 5543 5535 5528 5521 5514 5507 5499 5492 5485 5477 5470 5463 5455
5801 5799 5798 5797 5795 5793 5792 5790 5788 5786 5783 5781 5779 5777 5775 5772 5770 5767 5764 5761 5758 5755 5751 5748 5745 5742 5739 5736 5732 5728 5725 5721 5717 5712 5708 5703 5699 5695 5691 5688 5684 5682 5679 5677 5675 5673 5671 5669 5667 5664 5662 5659 5656 5653 5649 5645 5641 5637 5633 5628 5623 5619 5614 5609 5605 5599 5593 5586 5581 5575 5569 5565 5559 5551 5543 5536 5528 5522 5515 5508 5501 5493 5485 5478 5470 5463 5456 5449
5801 5800 5799 5797 5795 5794 5792 5790 5788 5786 5783 5781 5779 5777 5774 5772 5769 5766 5763 5760 5757 5754 5750 5747 5744 5741 5738 5734 5730 5727 5723 5719 5715 5710 5706 5701 5696 5692 5689 5686 5683 5680 5678 5676 5673 5671 5669 5667 5665 5662 5660 5657 5653 5650 5646 5642 5638 5634 5630 5625 5620 5615 5610 5605 5601 5595 5588 5582 5576 5571 5565 5559 5553 5547 5540 5532 5523 5514 5507 5500 5492 5485 5478 5470 5461 5454 5448 5441
5802 5800 5799 5797 5795 5794 5792 5790 5788 5785 5783 5781 5779 5776 5774 5771 5768 5766 5762 5759 5756 5753 5749 5746 5743 5739 5736 5732 5729 5725 5721 5717 5713 5708 5703 5699 5694 5691 5687 5684 5681 5679 5676 5674 5672 5670 5668 5665 5662 5660 5657 5654 5650 5646 5643 5639 5635 5631 5626 5621 5617 5612 5606 5602 5598 5592 5584 5577 5571 5565 5560 5554 5547 5540 5533 5526 5518 5509 5501 5493 5485 5478 5472 5464 5456 5448 5441 5435